Date,TemperatureHighF,TemperatureAvgF,TemperatureLowF,DewpointHighF,DewpointAvgF,DewpointLowF,HumidityHigh,HumidityAvg,HumidityLow,PressureMaxIn,PressureMinIn,WindSpeedMaxMPH,WindSpeedAvgMPH,GustSpeedMaxMPH,PrecipitationSumIn
2013-1-1,33.8,28.1,19.9,22.5,12.9,4.3,68,53,49,29.74,29.53,0,0,0,0.00
2013-1-2,29.1,22.4,12.2,13.1,6.7,-3.7,54,50,48,29.91,29.71,4,0,4,0.00
2013-1-3,23.5,15.4,6.8,6.2,-1.3,-8.7,51,47,43,29.94,29.79,0,0,0,0.00
2013-1-4,37.6,32.7,21.2,20.8,18.3,5.9,62,55,50,29.79,29.62,15,1,15,0.00
2013-1-5,39.6,33.9,27.9,21.7,17.5,13.0,59,51,44,30.06,29.65,8,0,8,0.00
2013-1-6,41.4,36.8,28.0,25.8,23.4,13.6,72,58,52,30.03,29.76,13,0,13,0.00
2013-1-7,34.5,33.6,32.5,23.7,22.5,22.2,69,63,62,29.97,29.76,0,0,0,0.00
2013-1-8,45.3,40.1,35.8,27.4,24.7,22.5,64,54,48,30.18,30.06,17,2,17,0.00
2013-1-9,42.4,39.5,30.0,30.9,26.7,20.4,68,60,50,30.21,29.79,22,2,22,0.00
2013-1-10,45.0,40.2,34.5,28.9,20.8,18.3,60,45,41,30.33,29.82,18,1,18,0.00
2013-1-11,39.0,36.8,30.7,33.3,27.6,17.7,82,70,51,30.33,30.03,2,0,2,0.00
2013-1-12,43.7,42.6,38.3,40.8,39.0,33.0,92,87,81,30.06,29.94,0,0,0,0.00
2013-1-13,51.6,48.3,43.0,48.8,46.4,40.8,96,93,90,29.97,29.79,16,1,16,0.00
2013-1-14,59.2,51.6,42.1,52.5,40.0,25.3,95,66,50,30.06,29.68,17,1,17,0.00
2013-1-15,42.1,38.2,34.9,25.3,22.7,19.9,56,53,51,30.12,30.03,8,0,8,0.00
2013-1-16,34.9,33.6,31.3,30.2,26.1,19.8,87,75,54,30.06,29.62,15,0,15,0.00
2013-1-17,33.6,32.9,32.2,30.2,29.0,28.2,87,85,84,29.76,29.65,4,0,4,0.00
2013-1-18,24.8,22.1,18.5,5.0,3.1,0.2,45,43,42,30.27,30.06,21,1,21,0.00
2013-1-19,46.4,40.1,23.9,27.1,21.8,4.5,59,48,40,30.21,29.71,30,5,30,0.00
2013-1-20,53.8,41.8,29.5,29.7,22.2,8.7,61,46,38,29.71,29.29,30,5,30,0.04
2013-1-21,32.5,27.4,23.7,12.6,9.0,6.0,61,46,38,29.85,29.62,12,1,12,0.00
2013-1-22,26.2,20.9,15.1,12.2,3.7,-2.4,66,47,43,29.82,29.53,12,1,12,7.77
2013-1-23,14.4,11.0,8.1,-3.1,-6.4,-11.8,46,45,39,29.91,29.85,13,1,13,0.00
2013-1-24,19.2,10.8,3.9,-2.4,-9.6,-15.5,42,38,37,29.91,29.79,14,2,14,0.00
2013-1-25,24.4,18.9,8.8,2.2,-3.1,-12.2,46,37,35,30.03,29.82,12,1,12,0.00
2013-1-26,23.7,18.2,12.2,5.0,1.1,-4.4,53,47,38,29.97,29.76,15,2,15,0.00
2013-1-27,28.8,23.0,13.6,7.1,1.9,-4.2,46,39,35,30.21,29.97,18,2,18,0.00
2013-1-28,30.4,27.1,20.8,22.1,11.2,0.9,75,52,37,30.15,29.79,15,1,15,0.00
2013-1-29,34.2,31.0,26.1,28.6,23.6,18.6,81,74,71,29.94,29.82,6,0,6,0.04
2013-1-30,59.4,52.3,35.8,56.5,49.8,33.7,98,91,84,29.76,29.23,27,6,27,3.15
2013-1-31,60.6,46.8,32.0,58.4,35.6,15.0,94,66,45,29.32,28.73,72,4,72,25.45
2013-2-1,34.2,29.9,25.0,13.0,9.7,5.1,47,42,40,29.79,29.44,9,0,10,0.00
2013-2-2,33.3,26.2,19.4,11.6,6.4,1.2,45,42,39,30.00,29.79,8,0,9,0.00
2013-2-3,27.1,25.5,23.5,16.6,15.0,7.6,68,64,43,29.79,29.47,0,0,1,1.98
2013-2-4,27.7,23.6,21.4,10.0,6.4,3.4,60,48,42,29.68,29.47,4,0,5,0.00
2013-2-5,28.6,26.5,22.6,17.6,10.0,5.0,67,50,43,29.79,29.68,0,0,1,0.00
2013-2-6,38.5,31.5,25.9,24.9,16.7,7.0,72,55,43,30.03,29.68,0,0,1,0.00
2013-2-7,27.9,23.3,18.7,10.7,3.6,0.4,48,42,38,30.27,30.03,11,0,12,0.00
2013-2-8,32.9,29.8,18.9,29.6,25.5,10.7,98,85,48,30.24,29.32,46,12,47,0.00
2013-2-9,21.9,18.4,14.2,16.7,11.3,1.5,91,74,56,29.91,29.29,47,2,48,0.00
2013-2-10,31.1,22.2,12.9,13.2,6.4,-0.6,57,50,45,30.12,29.91,6,0,6,0.00
2013-2-11,40.6,32.6,25.3,39.3,26.6,12.8,96,79,58,29.97,29.32,0,0,1,22.38
2013-2-12,38.7,36.1,34.0,28.6,25.7,23.1,80,66,60,29.59,29.38,2,0,3,7.31
2013-2-13,42.3,35.6,29.3,26.8,23.3,20.1,71,61,52,29.62,29.44,2,0,3,8.24
2013-2-14,33.8,33.4,32.7,24.9,23.4,21.1,70,66,62,29.47,29.44,2,0,3,0.00
2013-2-17,22.8,20.8,17.4,12.1,4.5,0.1,67,49,45,29.38,29.12,14,1,15,0.00
2013-2-18,29.7,22.1,14.7,8.9,3.3,-1.8,47,44,39,29.88,29.38,11,1,12,2.57
2013-2-19,43.7,34.8,22.8,37.5,20.7,3.5,88,57,43,29.91,29.32,13,0,14,29.80
2013-2-20,40.8,32.8,26.6,37.5,19.4,9.3,88,59,44,29.50,29.26,13,1,14,7.42
2013-2-21,31.8,27.5,24.4,12.1,10.1,8.1,52,48,43,29.91,29.50,14,1,15,0.45
2013-2-22,37.0,31.3,24.4,20.0,16.2,10.2,59,53,44,30.12,29.91,18,2,19,0.00
2013-2-23,37.4,35.0,32.9,31.8,25.8,19.4,86,69,56,30.09,29.68,9,0,10,29.53
2013-2-24,37.6,34.6,31.1,36.0,32.4,29.0,94,92,86,29.68,29.44,27,5,28,9.17
2013-2-25,37.9,34.0,29.8,29.8,28.6,27.3,92,81,68,30.00,29.62,11,1,12,1.27
2013-2-26,43.0,38.3,31.5,35.2,30.3,26.6,87,73,59,30.09,29.91,17,0,18,0.00
2013-2-27,40.8,39.8,38.3,40.3,39.0,37.8,98,97,93,29.76,29.29,33,10,34,1.95
2013-2-28,43.2,38.3,34.5,42.6,37.8,34.0,98,98,98,29.38,29.26,5,0,6,0.00
2013-3-1,39.7,37.4,34.7,35.7,31.8,27.3,97,81,71,29.44,29.32,11,1,12,0.00
2013-3-2,41.7,37.7,32.4,29.1,26.4,22.9,74,64,58,29.41,29.35,12,0,13,0.00
2013-3-3,41.2,36.5,33.8,29.7,27.0,22.5,77,68,61,29.38,29.29,6,0,7,0.00
2013-3-4,39.9,35.0,30.6,24.4,21.7,18.5,69,58,49,29.44,29.32,14,2,15,0.00
2013-3-5,42.6,38.9,31.5,29.2,25.4,18.4,68,58,52,29.79,29.59,17,1,18,0.00
2013-3-6,39.4,37.2,35.1,33.7,29.4,25.6,84,74,58,29.88,29.79,43,17,44,0.00
2013-3-7,33.6,32.3,30.9,30.8,29.3,27.8,91,89,84,29.79,29.74,35,9,36,0.00
2013-3-8,40.3,34.5,29.5,30.6,25.4,19.5,92,72,49,29.88,29.68,51,6,52,0.00
2013-3-9,39.7,35.3,31.3,28.5,22.9,17.3,77,61,51,30.12,29.88,29,4,30,0.00
2013-3-10,39.2,34.3,28.9,31.0,27.8,23.6,83,77,69,30.18,30.06,10,1,11,0.00
2013-3-11,49.6,45.1,35.1,39.4,36.4,31.3,86,72,60,30.03,29.91,15,2,16,0.00
2013-3-12,54.0,51.3,43.5,53.4,49.3,41.6,98,93,83,29.80,29.47,25,3,26,0.00
2013-3-13,52.5,45.3,37.4,51.4,31.5,18.5,96,60,41,29.53,29.44,4,0,5,0.00
2013-3-14,38.7,32.2,24.1,18.5,12.6,4.8,51,44,41,29.56,29.44,5,0,6,0.00
2013-3-15,39.4,32.9,22.5,20.1,13.1,3.9,54,44,36,29.59,29.35,13,1,14,0.00
2013-3-16,39.0,35.6,28.9,19.6,14.8,11.7,54,42,39,29.62,29.38,16,1,17,0.00
2013-3-17,38.3,34.2,28.8,15.9,11.3,5.8,45,38,35,30.00,29.62,11,2,12,0.00
2013-3-18,36.0,30.3,20.5,22.5,11.0,-1.1,72,44,37,30.21,30.00,13,1,14,0.00
2013-3-19,35.6,33.3,28.6,34.1,30.7,21.3,95,90,69,30.00,29.32,34,12,35,0.00
2013-3-20,35.6,32.5,27.1,25.0,21.3,18.1,87,64,53,29.56,29.41,15,0,16,0.00
2013-3-21,35.6,31.7,28.0,26.2,20.4,16.0,80,63,50,29.56,29.35,11,0,12,0.00
2013-3-22,39.2,35.5,30.0,24.9,20.1,15.9,77,54,46,29.47,29.35,19,1,20,0.00
2013-3-23,42.1,38.2,30.0,21.5,18.5,15.3,59,45,40,29.50,29.35,14,2,15,0.00
2013-3-24,45.3,40.0,31.1,25.1,22.1,16.4,60,49,40,29.56,29.47,15,2,16,0.00
2013-3-25,44.2,39.0,32.9,30.6,26.4,20.3,66,60,54,29.44,29.26,27,9,28,0.00
2013-3-26,48.4,42.6,33.3,26.3,23.4,18.3,72,47,38,29.50,29.32,18,2,19,0.00
2013-3-27,52.7,45.8,33.8,27.5,23.6,16.7,51,42,37,29.62,29.47,15,2,16,0.00
2013-3-28,46.9,43.7,37.8,30.3,28.4,24.4,72,55,46,29.74,29.59,15,1,16,0.00
2013-3-29,54.3,47.5,37.4,33.0,29.5,24.6,62,50,39,29.79,29.71,11,1,12,0.00
2013-3-30,53.6,46.9,38.7,30.0,27.1,24.6,58,46,36,29.85,29.76,11,1,16,0.00
2013-3-31,57.6,50.4,36.7,31.9,27.2,19.8,56,41,29,29.88,29.59,25,4,26,0.00
2013-4-1,61.7,49.3,36.5,42.5,34.2,14.5,82,57,40,29.50,29.26,18,2,19,0.00
2013-4-2,40.5,36.1,30.4,18.1,13.5,10.1,43,39,36,29.68,29.56,24,3,25,0.00
2013-4-3,45.5,39.1,30.2,18.0,13.8,9.5,42,35,30,29.88,29.68,14,3,15,0.00
2013-4-4,54.3,42.4,30.2,22.5,16.8,9.4,44,36,26,30.03,29.79,17,2,18,0.00
2013-4-5,55.2,45.7,38.5,31.0,24.1,17.9,52,43,34,29.79,29.38,18,2,19,0.00
2013-4-6,44.6,38.8,32.5,17.9,13.5,10.2,41,35,29,30.09,29.62,12,2,14,0.00
2013-4-7,52.7,44.2,34.5,37.1,24.6,14.3,69,47,32,30.09,29.76,27,5,28,0.00
2013-4-8,60.3,50.8,45.3,39.6,36.3,31.8,75,59,38,29.88,29.71,12,1,14,0.00
2013-4-9,68.5,52.8,46.2,50.6,40.6,34.6,83,64,41,29.85,29.62,10,1,11,0.00
2013-4-10,47.3,46.9,46.6,39.4,38.7,38.0,76,73,71,29.76,29.71,10,1,11,0.00
2013-4-13,49.3,43.9,42.3,40.3,37.3,35.3,85,78,67,29.71,29.59,11,0,12,0.00
2013-4-14,51.6,46.0,41.2,39.5,32.2,24.3,85,60,41,29.97,29.68,9,1,10,0.00
2013-4-15,53.4,44.9,36.3,35.9,29.7,23.6,69,55,41,30.18,29.97,14,2,15,0.00
2013-4-16,63.9,53.0,41.5,46.8,37.1,30.3,74,56,37,30.18,29.82,30,5,31,0.00
2013-4-17,63.3,58.1,50.0,48.6,37.1,27.3,73,47,31,30.09,29.82,15,1,16,0.00
2013-4-18,59.7,52.2,45.3,38.8,30.7,25.8,59,44,33,30.21,29.91,24,4,24,0.00
2013-4-19,73.4,63.6,52.7,61.5,54.3,38.3,91,73,50,29.94,29.44,27,6,28,0.00
2013-4-20,66.0,55.3,45.9,61.9,41.7,22.3,90,63,39,29.97,29.38,18,1,19,0.00
2013-4-21,50.7,43.5,36.1,25.8,21.8,15.8,51,42,36,30.44,29.97,16,2,17,0.00
2013-4-22,50.2,42.6,36.7,31.1,26.0,22.1,60,52,38,30.53,30.39,26,7,26,0.00
2013-4-23,42.4,41.3,40.1,40.1,35.2,25.9,92,80,56,30.39,29.91,29,8,30,0.00
2013-4-24,63.3,51.7,42.3,52.5,44.0,40.1,93,77,46,29.91,29.56,31,4,32,0.00
2013-4-25,62.4,54.5,48.7,50.1,40.9,29.0,84,62,34,30.03,29.62,24,2,25,0.00
2013-4-26,55.9,50.0,46.6,31.2,27.8,25.3,47,42,37,30.21,30.03,21,6,22,0.00
2013-5-11,68.0,64.7,62.6,59.8,58.4,57.1,86,80,73,29.56,29.47,11,1,12,0.00
2013-5-12,68.5,61.7,51.6,59.6,51.2,29.5,91,71,40,29.56,29.32,11,0,12,0.00
2013-5-13,59.9,52.7,45.3,34.4,29.5,24.0,51,41,35,29.79,29.56,13,0,14,0.00
2013-5-14,58.6,51.6,42.8,32.5,28.2,24.7,51,41,35,29.82,29.76,14,0,15,0.00
2013-5-15,59.9,50.4,44.6,48.5,32.2,24.9,71,50,39,29.82,29.47,19,1,20,0.00
2013-5-16,78.1,66.7,52.7,47.3,41.3,30.2,76,44,24,29.59,29.41,13,0,14,0.00
2013-5-17,66.4,60.1,53.8,40.1,36.3,30.5,51,41,27,30.00,29.56,12,0,14,0.00
2013-5-18,71.8,59.7,50.4,45.7,41.2,37.2,62,51,34,30.09,30.00,11,0,12,0.00
2013-5-19,70.0,58.0,51.3,52.2,46.0,40.9,84,65,47,30.15,30.03,13,1,14,0.00
2013-5-20,78.4,66.1,56.7,63.3,57.3,51.9,89,74,54,30.03,29.71,7,0,8,0.00
2013-5-21,70.3,60.0,51.6,60.5,53.9,48.2,94,81,67,29.79,29.68,18,2,19,0.00
2013-5-22,62.1,55.6,50.9,57.7,52.5,49.2,95,90,80,29.85,29.71,14,0,15,0.00
2013-5-23,72.9,67.8,54.5,64.1,61.5,52.2,93,81,72,29.74,29.62,21,3,22,0.00
2013-5-24,69.4,63.5,52.2,66.1,60.5,49.2,93,90,81,29.62,29.44,5,0,10,0.00
2013-5-25,53.1,49.6,42.3,50.8,47.2,39.0,94,92,88,29.59,29.47,11,1,12,0.00
2013-5-26,57.6,52.2,42.1,45.1,39.6,34.5,92,64,48,29.88,29.50,12,1,13,0.00
2013-5-27,67.6,63.0,57.2,38.3,36.8,35.3,47,38,33,29.94,29.85,3,0,4,0.00
2013-5-28,68.7,63.2,58.1,47.6,43.9,39.9,67,50,38,30.03,29.94,9,1,10,0.00
2013-5-29,60.4,60.1,59.9,56.2,55.4,55.1,86,85,84,29.91,29.88,0,0,1,0.00
2013-5-30,83.3,78.8,69.8,76.7,67.6,61.1,97,70,54,29.85,29.76,7,0,8,0.00
2013-5-31,89.6,84.6,71.4,69.0,62.0,57.7,74,48,36,29.85,29.68,7,0,8,0.00
2013-6-1,89.4,85.1,76.3,65.1,60.8,57.9,60,45,35,29.74,29.62,13,1,14,0.00
2013-6-2,88.2,80.8,71.6,67.3,61.4,57.2,71,53,37,29.62,29.47,22,3,22,0.00
2013-6-3,75.4,70.6,64.6,64.9,60.1,43.2,83,70,45,29.62,29.50,14,0,15,0.00
2013-6-4,69.3,65.9,57.7,45.2,41.4,38.2,49,41,36,29.85,29.65,11,0,12,0.00
2013-6-5,72.1,66.0,57.6,45.8,42.9,38.3,54,43,35,29.94,29.85,11,0,12,0.00
2013-6-6,72.3,67.3,62.8,50.0,47.3,41.2,56,49,44,29.97,29.88,7,0,8,0.00
2013-6-17,82.4,73.2,62.8,64.6,60.0,50.6,98,68,34,29.68,29.53,11,0,12,0.00
2013-6-18,70.7,63.4,58.8,68.4,62.1,58.3,98,96,85,29.71,29.68,17,1,18,0.00
2013-6-19,69.3,64.7,58.6,64.1,54.6,48.1,98,71,54,29.91,29.71,14,1,15,0.00
2013-6-20,73.0,69.6,61.5,56.2,53.5,49.2,66,57,48,30.03,29.91,11,0,12,0.00
2013-6-21,79.3,74.0,65.1,61.5,58.6,50.9,67,59,50,30.03,29.94,7,0,8,0.00
2013-6-22,81.3,76.6,69.4,60.2,55.6,50.1,64,49,39,29.97,29.85,13,1,14,0.00
2013-6-23,87.6,80.6,67.3,67.3,62.0,50.6,63,54,43,29.91,29.74,13,0,14,0.00
2013-6-24,89.8,83.3,70.9,71.8,67.6,60.3,96,61,46,29.74,29.62,16,0,17,0.00
2013-6-25,86.7,83.9,76.8,78.3,67.5,62.5,86,59,45,29.62,29.47,12,1,13,0.00
2013-6-26,84.7,75.1,68.4,68.6,66.8,64.3,89,76,57,29.59,29.50,7,0,8,0.00
2013-6-27,69.3,65.7,63.1,64.7,62.7,60.8,94,90,84,29.62,29.53,6,0,7,0.00
2013-6-28,77.7,71.9,63.3,72.7,67.5,61.6,98,86,71,29.53,29.26,19,2,20,0.00
2013-6-29,80.1,76.3,70.7,68.9,65.2,62.6,87,69,57,29.47,29.32,17,2,18,0.00
2013-6-30,84.0,78.0,71.2,70.0,66.4,64.4,82,68,55,29.68,29.47,17,1,18,0.00
2013-7-1,79.3,75.2,73.0,72.5,70.2,66.8,89,84,74,29.82,29.68,9,0,10,0.00
2013-7-2,80.4,71.5,62.8,71.9,64.7,58.2,87,79,69,29.97,29.88,11,1,12,0.00
2013-7-3,84.9,80.3,62.6,72.6,69.3,58.7,89,70,60,29.94,29.88,11,0,12,0.00
2013-7-4,89.8,83.2,75.6,74.4,71.6,68.2,85,69,53,29.94,29.88,6,0,6,0.00
2013-7-5,91.0,88.0,82.0,74.4,69.7,65.6,73,55,45,29.88,29.76,9,0,10,0.00
2013-7-6,89.6,85.8,78.3,72.5,66.0,58.3,69,52,44,29.79,29.71,5,0,7,0.00
2013-7-7,88.5,83.0,77.2,70.2,66.8,61.4,71,59,48,29.76,29.65,5,0,6,0.00
2013-7-8,82.8,75.6,68.7,73.3,66.1,61.2,80,73,67,29.79,29.68,13,1,14,0.00
2013-7-9,72.0,69.2,66.7,64.6,63.0,60.9,87,81,77,29.85,29.79,6,0,7,0.00
2013-7-10,81.5,75.9,67.3,73.0,69.9,64.6,93,82,67,29.76,29.53,16,1,17,0.00
2013-7-11,79.7,76.3,73.4,72.5,69.7,66.3,88,80,70,29.65,29.53,4,0,5,0.00
2013-7-12,73.9,70.6,67.3,67.2,56.9,50.7,86,62,47,29.94,29.65,18,2,19,0.00
2013-7-13,74.3,70.5,67.1,65.9,63.4,58.7,86,78,73,30.06,29.94,6,0,7,0.00
2013-7-14,87.6,79.6,69.3,73.5,69.2,64.6,90,71,52,30.03,29.94,10,0,11,0.00
2013-7-15,88.3,82.4,76.8,72.6,67.6,64.0,78,61,50,29.94,29.82,7,0,8,0.00
2013-7-16,89.1,81.6,75.4,69.8,65.8,62.8,72,59,45,29.91,29.85,7,0,8,0.00
2013-7-17,88.7,84.1,74.5,73.3,69.0,64.1,74,61,50,29.91,29.74,11,0,12,0.00
2013-7-18,90.0,80.6,76.1,71.9,67.7,63.6,75,65,50,29.76,29.68,10,0,11,0.00
2013-7-19,95.7,89.6,76.6,73.9,69.4,64.4,75,53,38,29.68,29.44,13,1,14,0.00
2013-7-20,92.3,86.3,78.6,74.2,68.0,60.5,72,55,43,29.53,29.35,14,0,15,0.00
2013-7-21,78.6,74.1,70.9,64.0,60.5,56.4,78,63,48,29.74,29.53,10,0,11,0.00
2013-7-22,78.6,72.8,68.7,68.3,64.5,62.4,83,76,64,29.76,29.62,11,0,12,0.00
2013-7-23,77.2,73.3,69.4,73.9,70.2,64.6,94,90,83,29.65,29.26,8,0,9,0.00
2013-7-24,83.8,78.0,68.5,73.2,64.9,51.8,92,65,52,29.68,29.32,10,0,11,0.00
2013-7-25,68.5,62.3,61.2,57.1,53.8,48.6,86,74,55,29.85,29.68,15,2,16,0.00
2013-7-26,68.9,65.9,61.2,65.1,62.6,57.0,93,89,82,29.82,29.68,11,0,12,0.00
2013-7-27,81.3,73.3,62.2,67.7,62.5,58.7,90,70,48,29.79,29.74,11,0,12,0.00
2013-7-28,76.1,71.3,67.8,68.1,64.0,59.9,86,78,70,29.79,29.71,11,0,12,0.00
2013-7-29,77.7,72.9,69.6,70.7,67.7,64.4,90,84,71,29.79,29.71,7,0,8,0.00
2013-7-30,79.5,73.9,64.9,66.6,59.0,53.4,90,61,43,29.82,29.76,9,0,10,0.00
2013-7-31,80.2,73.5,66.7,60.6,58.3,55.1,70,59,46,29.88,29.79,6,0,6,0.00
2013-8-1,79.9,75.1,70.3,66.2,59.7,54.0,71,59,46,29.79,29.62,13,0,14,0.00
2013-8-2,80.1,75.4,66.6,68.0,60.1,53.8,85,61,44,29.59,29.50,7,0,8,0.00
2013-8-3,77.0,73.8,69.6,60.8,58.1,55.2,66,58,49,29.59,29.50,7,0,8,0.00
2013-8-4,78.4,71.8,64.4,57.2,54.4,51.2,68,55,41,29.62,29.50,11,0,12,0.00
2013-8-5,73.6,68.5,59.5,49.8,44.4,39.2,66,43,32,29.76,29.65,13,0,14,0.00
2013-8-6,76.5,69.2,59.0,55.1,48.8,41.4,66,49,37,29.88,29.82,5,0,6,0.00
2013-8-7,76.8,70.8,63.1,59.8,53.0,44.3,71,54,37,29.91,29.82,10,0,11,0.00
2013-8-8,79.7,75.9,69.4,67.2,65.7,62.3,79,71,63,29.82,29.74,11,1,12,0.00
2013-8-9,75.0,73.5,72.1,72.4,70.1,66.5,94,89,78,29.76,29.47,10,0,11,0.00
2013-8-10,81.7,76.8,68.0,65.0,56.2,50.2,63,49,43,29.71,29.59,9,0,10,0.00
2013-8-11,77.7,73.3,63.1,53.8,51.5,49.2,64,47,39,29.79,29.71,10,0,11,0.00
2013-8-12,79.5,76.0,66.6,57.2,54.0,51.2,70,47,38,29.74,29.65,6,0,7,0.00
2013-8-13,73.6,70.7,67.5,64.1,61.2,56.2,78,72,57,29.65,29.41,9,0,10,0.00
2013-8-14,73.8,69.3,62.8,60.7,49.2,45.9,78,49,41,29.68,29.41,10,1,11,0.00
2013-8-15,75.7,69.9,58.6,50.6,47.1,45.3,64,45,35,29.82,29.74,6,0,7,0.00
2013-8-16,77.9,72.6,60.6,53.4,49.4,46.2,63,45,35,29.91,29.82,9,0,10,0.00
2013-8-17,63.9,63.4,63.1,51.3,51.0,50.8,64,64,64,29.97,29.97,6,0,7,0.00
2013-8-18,79.2,74.4,70.0,63.2,56.0,51.5,67,53,43,30.00,29.82,7,0,8,0.00
2013-8-19,80.2,74.9,65.8,55.7,54.7,53.8,66,50,42,29.76,29.68,4,0,5,0.00
2013-8-20,84.7,75.2,67.8,61.6,57.7,54.9,66,55,39,29.79,29.68,6,0,7,0.00
2013-8-21,86.4,81.4,72.5,63.6,59.8,56.5,65,48,41,29.85,29.74,6,0,7,0.00
2013-8-22,87.1,79.9,69.8,65.8,63.2,58.7,74,58,39,29.71,29.56,14,1,15,0.00
2013-8-23,77.5,72.1,66.9,59.5,55.1,47.7,68,56,44,29.82,29.59,9,1,10,0.00
2013-8-24,74.1,68.0,58.8,48.1,42.3,37.8,59,40,33,30.03,29.97,11,1,12,0.00
2013-8-25,79.7,73.6,62.4,52.3,47.6,44.7,56,40,33,30.09,29.91,9,0,10,0.00
2013-8-26,81.3,75.8,67.5,59.9,57.6,53.3,65,54,46,29.82,29.62,9,1,10,0.00
2013-8-27,78.3,73.7,68.7,67.3,63.2,60.4,79,70,61,29.62,29.56,9,0,10,0.00
2013-8-28,78.1,69.2,64.2,66.6,61.7,58.5,89,78,65,29.74,29.59,10,0,11,0.00
2013-8-29,66.0,64.5,63.0,62.7,58.8,55.8,90,82,77,29.82,29.71,18,2,19,0.00
2013-8-30,81.0,76.5,66.2,64.5,62.7,58.8,78,63,52,29.71,29.56,10,0,11,0.00
2013-8-31,79.7,75.7,71.2,72.3,68.9,64.1,88,80,72,29.56,29.53,4,0,5,0.00
2013-9-1,77.2,72.9,71.8,73.3,68.7,65.1,91,87,79,29.62,29.56,2,0,3,0.00
2013-9-2,78.3,74.8,71.8,73.4,69.9,67.3,92,85,73,29.62,29.44,2,0,3,0.00
2013-9-3,81.0,75.1,69.4,70.0,66.0,56.8,89,74,56,29.53,29.41,2,0,3,0.00
2013-9-4,79.5,74.4,63.7,59.0,53.4,49.8,74,49,39,29.65,29.56,0,0,1,0.00
2013-9-5,68.4,64.9,59.4,58.8,53.3,47.8,77,66,59,29.85,29.62,2,0,3,0.00
2013-9-6,68.2,63.3,50.7,42.5,39.4,37.6,62,42,33,29.97,29.82,0,0,1,0.00
2013-9-7,78.3,67.8,55.6,48.6,44.3,38.8,57,44,32,29.82,29.59,0,0,1,0.00
2013-9-8,75.0,67.6,58.5,57.8,46.4,35.4,67,48,34,29.79,29.47,2,0,3,0.00
2013-9-9,71.2,64.0,50.9,43.6,39.8,35.3,56,42,32,29.97,29.88,2,0,3,0.00
2013-9-10,74.1,70.8,64.2,66.3,62.2,43.4,85,74,65,29.88,29.76,2,0,3,0.00
2013-9-11,92.8,83.6,70.3,75.5,68.5,61.8,89,63,38,29.82,29.68,2,0,3,0.00
2013-9-12,87.8,80.6,69.3,71.4,66.9,62.6,80,64,47,29.65,29.38,17,1,18,0.00
2013-9-13,69.6,64.3,62.2,63.5,55.8,53.3,81,74,72,29.47,29.38,10,1,11,0.00
2013-9-14,67.8,63.9,58.3,54.2,50.3,47.0,72,61,55,29.79,29.56,9,0,10,0.00
2013-9-15,71.6,65.0,54.0,51.7,46.2,42.2,74,52,37,29.91,29.79,10,0,11,0.00
2013-9-16,66.7,60.5,51.3,51.0,44.9,33.3,68,57,48,29.97,29.76,12,1,13,0.00
2013-9-17,60.4,55.6,44.1,39.7,35.7,31.1,64,47,38,30.15,29.97,17,1,18,0.00
2013-9-18,71.4,64.5,48.6,45.2,40.9,37.0,65,43,33,30.06,29.88,5,0,6,0.00
2013-9-19,72.9,64.4,53.2,50.6,47.6,41.4,66,55,43,29.88,29.79,7,0,8,0.00
2013-9-20,61.7,56.9,56.3,50.7,48.4,47.8,74,73,63,29.82,29.79,0,0,1,0.00
2013-9-21,74.8,70.7,59.7,61.1,57.2,52.4,84,63,46,29.74,29.50,21,4,22,0.00
2013-9-22,70.3,64.5,56.1,63.9,51.4,41.6,85,64,47,29.56,29.35,13,1,14,0.00
2013-9-23,62.2,56.3,48.9,40.9,37.8,33.6,64,50,44,29.74,29.62,11,1,12,0.00
2013-9-24,64.0,56.4,45.9,41.8,38.3,33.6,67,51,40,29.74,29.56,12,1,19,0.00
2013-9-25,65.3,56.9,50.2,44.7,41.9,38.5,65,58,46,29.74,29.62,10,0,11,0.00
2013-9-26,64.2,59.4,54.5,46.9,44.7,42.2,68,58,49,29.85,29.76,18,0,19,0.00
2013-9-27,65.3,60.4,56.7,49.6,46.3,43.4,70,60,49,30.00,29.88,14,1,15,0.00
2013-9-28,66.0,56.2,53.6,53.8,47.5,45.2,77,73,64,30.06,30.00,9,0,10,0.00
2013-10-4,64.8,62.0,58.3,54.0,51.1,44.0,77,68,59,29.82,29.79,7,0,8,0.00
2013-10-5,69.4,62.7,59.9,55.5,53.9,52.2,83,73,59,29.88,29.79,7,0,8,0.00
2013-10-6,61.5,57.8,55.6,55.4,53.8,52.0,93,86,72,30.00,29.88,11,0,12,0.00
2013-10-7,76.1,69.0,60.6,70.4,63.3,53.0,97,83,68,29.82,29.56,37,3,38,0.00
2013-10-8,64.6,59.2,52.5,53.0,40.4,34.6,70,50,40,30.12,29.65,11,1,12,0.00
2013-10-9,54.7,49.8,47.5,41.8,38.8,34.6,71,66,51,30.21,30.12,6,0,7,0.00
2013-10-10,61.3,53.8,48.0,50.5,45.6,41.0,78,74,66,30.12,30.03,7,0,8,0.00
2013-10-11,67.3,60.7,52.0,54.4,48.1,41.0,84,64,43,29.91,29.85,9,1,10,0.00
2013-10-12,59.9,57.1,54.9,54.3,51.1,47.4,87,80,71,30.15,29.88,16,3,17,0.00
2013-10-13,59.2,54.6,48.0,48.3,43.7,39.8,85,67,55,30.21,30.15,13,2,14,0.00
2013-10-14,61.7,55.1,43.0,47.3,44.3,36.9,83,68,51,30.15,30.00,7,0,8,0.00
2013-10-15,58.1,56.4,52.0,51.6,49.5,44.3,80,77,74,30.00,29.94,0,0,1,0.00
2013-10-16,61.5,58.0,52.2,54.1,52.0,47.8,88,80,74,29.91,29.68,10,0,11,0.00
2013-10-17,70.0,65.1,56.1,60.0,56.8,52.7,92,75,62,29.68,29.50,7,0,8,0.00
2013-10-18,68.0,62.3,54.7,53.7,44.4,36.4,77,52,43,29.65,29.44,10,1,11,0.00
2013-10-19,68.0,61.6,54.5,41.6,39.7,36.6,59,45,35,29.71,29.50,14,2,15,0.00
2013-10-20,62.1,56.9,50.2,46.0,34.7,28.9,66,44,35,29.74,29.44,10,1,11,0.00
2013-10-21,65.5,57.0,46.0,42.2,36.6,29.1,58,47,36,29.85,29.74,11,0,12,0.00
2013-10-22,67.3,59.8,50.5,49.3,42.5,32.6,75,54,43,29.76,29.44,11,1,12,0.00
2013-10-23,50.7,46.3,43.7,32.8,30.6,29.5,58,54,50,29.53,29.50,4,0,5,0.00
2013-10-24,55.4,48.3,41.5,30.4,25.5,21.1,55,41,36,29.62,29.47,11,1,12,0.00
2013-10-25,49.6,43.7,37.4,29.5,23.7,20.0,58,45,38,29.88,29.62,7,0,8,0.00
2013-10-26,54.5,47.7,36.3,30.8,26.7,22.1,60,45,33,29.88,29.62,17,2,18,0.00
2013-10-27,56.1,49.8,43.9,35.3,29.8,24.0,65,47,38,29.79,29.56,7,0,8,0.00
2013-10-28,59.4,49.9,38.8,32.8,27.4,18.9,57,42,36,30.09,29.79,11,1,12,0.00
2013-10-29,49.3,40.8,34.0,27.8,22.4,15.9,59,48,40,30.18,30.06,9,0,10,0.00
2013-10-30,49.3,43.0,39.2,38.1,32.6,26.6,73,67,59,30.09,29.91,3,0,4,0.00
2013-10-31,62.2,51.5,40.6,59.0,45.5,33.7,91,80,74,29.97,29.56,18,1,19,0.00
2013-11-1,70.3,65.1,59.4,60.5,54.6,50.5,90,69,59,29.56,29.20,34,3,35,0.00
2013-11-2,66.6,60.4,52.9,50.7,43.9,38.8,74,56,37,29.47,29.32,6,0,7,0.00
2013-11-3,54.0,43.1,35.1,44.0,30.1,15.9,77,61,43,30.12,29.44,10,0,11,0.00
2013-11-4,41.0,36.9,29.7,20.2,17.5,13.8,52,45,39,30.41,30.30,18,2,19,0.00
2013-11-5,51.1,42.5,31.6,30.0,25.4,15.9,57,51,41,30.44,30.24,11,0,12,0.00
2013-11-6,60.8,52.0,43.3,47.3,37.1,28.4,75,57,42,30.24,29.76,17,2,18,0.00
2013-11-7,63.5,60.4,54.1,56.5,54.9,45.3,88,82,71,29.76,29.50,16,3,17,0.00
2013-11-8,48.4,42.0,35.2,31.1,24.5,18.2,58,50,44,29.79,29.59,7,0,8,0.00
2013-11-9,45.9,41.9,33.8,24.1,21.2,17.6,52,43,39,29.91,29.79,9,0,10,0.00
2013-11-10,43.3,43.0,42.8,27.7,25.0,24.1,54,49,47,29.79,29.56,5,0,6,0.00
2013-11-11,50.9,48.3,41.7,27.5,25.4,23.5,48,41,37,29.79,29.62,15,1,16,0.00
2013-11-12,43.0,33.9,28.8,33.2,17.8,11.1,69,52,44,29.91,29.65,10,0,11,0.00
2013-11-13,36.1,32.1,26.4,15.1,11.9,9.5,49,43,40,30.00,29.91,6,0,11,0.00
2013-11-14,44.4,41.6,31.3,20.4,18.6,12.4,45,39,38,29.82,29.79,8,0,9,0.00
2013-11-15,59.4,51.3,38.5,26.5,23.2,15.7,41,33,25,29.91,29.82,15,1,16,0.00
2013-11-16,56.8,47.8,43.9,29.7,26.3,22.4,52,43,34,30.03,29.94,7,0,8,0.00
2013-11-17,53.4,49.7,41.7,48.2,41.2,26.2,88,73,52,30.03,29.59,7,0,8,0.00
2013-11-18,64.8,58.9,48.7,61.8,42.1,28.9,98,55,44,29.59,29.26,16,1,17,0.00
2013-11-19,48.7,43.1,32.9,28.9,21.6,12.3,46,42,38,29.94,29.38,14,2,15,0.00
2013-11-20,40.3,35.2,28.6,16.2,12.7,8.9,44,39,36,30.33,30.15,12,1,13,0.00
2013-11-21,48.6,41.5,27.7,23.8,18.8,8.1,46,40,35,30.36,30.09,10,0,11,0.00
2013-11-22,46.8,45.1,41.7,40.8,37.8,22.1,85,76,46,30.09,29.53,5,0,6,0.00
2013-11-23,44.8,38.9,30.4,31.0,20.0,12.1,65,47,39,29.62,29.47,13,1,14,0.00
2013-11-24,30.6,24.3,20.8,12.1,2.6,-2.5,53,39,34,29.91,29.47,15,4,16,0.00
2013-11-25,32.5,27.9,17.4,11.5,4.1,-4.4,42,36,32,30.09,29.91,19,2,20,0.00
2013-11-26,44.2,38.2,32.0,40.6,20.8,11.5,87,50,40,30.03,29.76,15,0,16,0.00
2013-11-27,61.7,53.1,38.7,61.0,50.9,32.4,98,92,78,29.76,28.94,41,3,42,0.00
2013-11-28,38.7,30.9,25.7,32.7,14.0,8.1,79,50,41,30.15,29.14,15,1,16,0.00
2013-11-29,32.5,27.5,23.0,12.7,9.2,4.3,54,46,41,30.44,30.15,6,0,7,0.00
2013-11-30,34.0,30.1,20.5,20.6,13.9,3.5,58,50,44,30.50,30.15,9,1,10,0.00
2013-12-1,43.5,39.3,33.8,36.1,32.6,20.2,86,77,58,30.15,29.74,11,0,12,0.00
2013-12-2,41.2,38.8,36.9,38.0,35.4,33.7,90,87,86,29.71,29.65,2,0,3,0.00
2013-12-3,45.9,39.7,35.8,37.0,32.9,27.6,90,77,63,29.65,29.56,7,0,8,0.00
2013-12-4,42.3,38.1,32.7,26.7,25.6,24.2,78,61,51,29.91,29.65,8,0,9,0.00
2013-12-5,49.3,45.2,35.2,47.9,39.5,24.6,95,80,64,29.91,29.65,6,0,7,0.00
2013-12-6,55.8,47.1,35.4,54.1,40.7,30.0,94,79,63,29.88,29.59,7,0,8,0.00
2013-12-7,40.1,34.8,29.7,30.6,23.8,16.3,83,65,52,30.15,29.82,10,0,11,0.00
2013-12-8,29.8,29.2,26.8,16.8,15.2,11.9,59,56,48,30.30,30.15,7,0,8,0.00
2013-12-9,41.2,35.0,26.6,39.3,30.4,11.9,97,84,48,30.21,29.59,19,1,20,0.00
2013-12-10,34.9,32.5,25.2,32.0,28.4,14.7,91,85,63,29.71,29.53,6,0,7,0.00
2013-12-11,32.7,26.9,23.9,20.3,15.8,14.0,70,63,54,29.91,29.71,16,0,17,0.00
2013-12-12,25.2,22.2,19.0,14.2,5.0,2.2,64,47,43,29.97,29.79,10,0,11,0.00
2013-12-13,29.1,22.9,15.8,11.8,7.0,0.0,55,50,45,30.09,29.71,14,1,15,0.00
2013-12-14,29.7,18.4,10.8,26.5,5.9,-5.1,88,59,46,30.30,29.88,26,4,26,0.00
2013-12-15,35.6,28.7,23.9,35.1,27.7,22.7,98,96,88,29.85,29.12,31,5,32,0.00
2013-12-16,27.5,23.2,18.3,23.4,15.4,10.2,92,72,64,29.91,29.44,3,0,4,0.00
2013-12-17,22.1,15.6,7.7,19.1,9.4,0.3,88,76,62,30.00,29.65,18,2,19,0.00
2013-12-18,32.0,26.1,18.1,24.3,20.1,13.9,86,78,69,29.79,29.53,18,0,19,0.00
2013-12-19,37.8,33.2,25.2,32.4,26.2,19.0,85,75,69,29.85,29.65,14,1,15,0.00
2013-12-20,46.9,38.9,34.3,37.5,30.4,26.6,75,71,62,29.82,29.62,10,0,11,0.00
2013-12-21,53.1,49.1,41.2,46.7,43.7,32.2,87,82,70,29.68,29.59,11,1,12,0.00
2013-12-22,50.9,38.7,35.1,47.4,36.9,33.8,97,93,87,29.76,29.53,13,1,14,0.00
2013-12-23,37.0,34.7,32.7,36.5,33.9,32.0,98,97,96,29.79,29.68,4,0,5,0.00
2013-12-24,37.0,32.0,27.0,36.3,22.2,12.1,97,67,53,29.91,29.76,7,0,8,0.00
2013-12-25,27.0,20.3,14.4,12.6,4.3,-0.8,56,49,45,30.27,29.91,6,0,11,0.00
2013-12-26,33.8,30.2,20.1,28.1,22.8,6.9,83,74,56,30.21,29.79,0,0,1,0.00
2013-12-27,33.3,30.9,26.8,22.1,19.0,17.0,71,61,57,30.00,29.91,9,0,10,0.00
2013-12-28,43.3,35.0,27.9,26.7,22.3,18.1,70,60,50,29.94,29.71,8,0,9,0.00
2013-12-29,41.9,38.1,34.7,40.1,29.7,22.2,98,73,59,29.76,29.12,23,1,24,0.00
2013-12-30,39.7,32.8,19.8,39.2,26.9,6.6,98,80,55,29.91,29.23,8,1,9,0.00
2013-12-31,24.8,20.0,14.4,12.3,5.4,-1.3,62,52,47,29.91,29.76,8,0,9,0.00
2014-1-1,26.8,22.7,18.7,12.3,6.9,4.4,62,50,44,30.12,29.91,10,0,11,0.00
2014-1-2,22.1,13.8,1.2,16.5,6.0,-5.1,80,71,51,30.09,29.56,31,6,32,0.00